Location: Newark
(51.3318°N, 0.0053°E)
Time: 20:56:08
(UTC+00:00)

BlueWalker 3 - Visible Passes

Search period start: 28 November 2022 00:00
Search period end: 08 December 2022 00:00
Orbit: 500 x 519 km, 53.2° (Epoch: 28 November)

Date Brightness Start Highest point End Pass type
(mag) Time Alt. Az. Time Alt. Az. Time Alt. Az.
28 Nov 2.2 17:11:14 10° SW 17:15:06 60° SSE 17:17:47 19° ENE visible
28 Nov 3.2 18:49:55 10° W 18:52:36 41° WNW 18:52:36 41° WNW visible
29 Nov 2.2 16:52:52 10° SW 16:56:45 62° SSE 17:00:09 13° ENE visible
29 Nov 2.4 18:31:34 10° W 18:34:58 58° NW 18:34:58 58° NW visible
30 Nov 2.2 16:34:30 10° WSW 16:38:23 65° SSE 16:42:16 10° ENE visible
30 Nov 1.9 18:13:13 10° W 18:17:07 66° N 18:17:19 65° NNE visible
30 Nov 5.4 19:52:04 10° WNW 19:52:08 10° WNW 19:52:08 10° WNW visible
01 Dec 2.0 17:54:51 10° W 17:58:46 66° N 17:59:39 48° NE visible
01 Dec 4.9 19:33:42 10° WNW 19:34:29 15° WNW 19:34:29 15° WNW visible
02 Dec 2.0 17:36:29 10° W 17:40:24 65° N 17:42:00 33° ENE visible
02 Dec 4.3 19:15:19 10° WNW 19:16:49 22° WNW 19:16:49 22° WNW visible
03 Dec 2.0 17:18:07 10° W 17:22:02 65° N 17:24:22 23° ENE visible
03 Dec 3.6 18:56:57 10° WNW 18:59:11 33° WNW 18:59:11 33° WNW visible
04 Dec 2.1 16:59:44 10° W 17:03:39 65° N 17:06:45 15° E visible
04 Dec 2.7 18:38:33 10° WNW 18:41:35 52° WNW 18:41:35 52° WNW visible
05 Dec 2.1 16:41:21 10° W 16:45:16 65° N 16:49:09 10° E visible
05 Dec 1.9 18:20:10 10° WNW 18:24:02 83° SW 18:24:02 83° SW visible
06 Dec 1.9 18:01:46 10° WNW 18:05:41 82° SSW 18:06:32 53° ESE visible
06 Dec 5.1 19:40:47 10° W 19:41:22 13° W 19:41:22 13° W visible
07 Dec 2.0 17:43:21 10° WNW 17:47:16 79° SSW 17:49:08 30° ESE visible
07 Dec 4.6 19:22:25 10° W 19:23:59 18° WSW 19:23:59 18° WSW visible
